Find Starlink 31666

NORAD ID: 59572 Int'l Des: 2024-076 Owner: SPXS Country: US Constellation: starlink operational
LEOCIRCULAR

現在のビュー

3D地球を読み込み中...

About Starlink 31666

Starlink 31666 (NORAD 59572) is a starlink constellation satellite (v2 mini) launched Apr 23, 2024 by SPXS of US. It operates in LEO, CIRCULAR orbit with a mass of 730.00 kg.

Starlink 31666について

説明を読み込み中...

次回通過

Passes for default location (London). Set your location on the main map for personalized predictions.

高度履歴

Loading altitude history...

軌道要素

1 59572U 24076J 26160.56202432 .00000578 00000-0 30521-4 0 9991
2 59572 43.0035 203.1848 0001214 274.1001 85.9712 15.27586917120639
Epoch: Jun 9, 2026 • Age: 17 hours

現在のステータス

高度 484.9 km
速度 7.62 km/s
衛星直下点 -12.61°S, 173.35°W
打ち上げ日 Apr 23, 2024
運用期間 2.1 years
タイプ internet

技術仕様

分類 Payload
質量 730.00 kg
乾燥質量 700.00 kg
総質量 730.00 kg
長さ 0.30 m
直径 4.10 m
スパン 29.00 m
形状 Box + pan
製造者 SPXS
バスタイプ Starlink V2M
フェーズステータス In Orbit
所有者/国 SPXS/US

Most Searched